RH
36 36 36 36 36 37 38 39 41 42 38 32 32 32 32 34 36 36 38 39 38 36 34 34 32 30 31 31 30 29 28 28
38 37 36 36 37 39 42 43 44 43 37 35 37 36 38 40 42 41 36 33 30 26 24 25 28 29 27 25 31 34 35 33
39 39 39 38 39 42 46 48 47 43 41 41 44 45 45 42 40 38 32 26 16 9 4 3 2 2 2 2 3 9 22 36
37 40 42 42 43 48 52 51 48 46 45 45 47 47 46 47 44 39 35 26 12 4 2 1 1 1 1 1 1 1 1 1
47 46 48 48 52 58 55 53 51 54 53 50 50 49 51 49 44 38 30 17 6 2 1 1 1 1 1 1 1 1 2 3
52 50 53 59 64 64 63 77 88 81 58 60 63 63 53 48 41 22 6 1 1 1 1 1 1 2 3 5 8 10 11 12
54 56 57 63 82 94 96 96 97 94 82 83 84 63 54 36 12 2 1 1 1 1 2 2 4 6 8 11 13 11 11 13
52 56 60 62 72 77 86 98 95 92 91 81 73 51 26 5 2 2 2 2 3 5 6 6 8 10 10 10 12 16 18 21
55 57 62 71 97 99 98 94 96 99 99 89 56 39 10 3 2 3 3 6 10 12 14 17 20 19 15 12 16 18 20 22
64 60 61 65 75 96 94 93 98 99 94 69 52 26 6 3 4 4 4 8 18 17 19 25 22 13 13 11 10 9 12 16
73 68 64 65 83 97 98 96 97 96 71 63 44 16 5 4 5 6 7 10 17 22 24 30 17 12 12 13 13 16 14 14
78 73 68 75 84 82 99 98 99 78 70 55 32 9 6 7 7 7 8 11 14 23 32 34 27 26 26 20 20 20 13 11
87 82 78 81 86 97 99 100 93 75 59 50 23 9 9 9 8 8 7 8 12 20 31 41 45 36 34 33 31 22 14 14
87 94 85 94 96 99 98 98 85 59 52 38 16 12 12 12 10 10 9 9 11 22 34 41 44 50 46 41 30 18 20 17
98 98 98 99 98 96 98 88 62 56 51 23 17 20 18 15 14 12 11 12 16 22 45 49 52 48 49 45 27 24 21 16
98 99 99 99 98 81 62 58 58 54 30 23 27 22 17 16 18 19 17 16 18 24 36 58 58 57 58 52 26 21 13 8
88 70 73 67 51 47 53 52 37 32 33 40 42 33 28 24 21 21 23 24 26 28 34 37 47 66 69 37 17 11 8 7
30 26 30 40 44 36 27 25 27 39 54 52 45 48 53 68 55 48 54 53 40 34 35 34 34 43 32 15 12 11 9 7
16 12 15 19 20 21 24 31 42 56 74 88 88 76 77 85 91 82 71 80 72 48 35 30 25 26 19 16 15 13 11 9
Wind_Speed
26 30 34 35 33 33 32 31 28 26 24 22 17 15 15 17 18 21 27 33 39 43 45 47 48 49 50 51 52 52 53 53
26 29 31 35 37 37 33 30 25 23 23 21 18 18 18 20 25 33 37 40 43 45 48 50 52 55 56 57 58 57 56 58
29 31 34 38 41 38 32 23 21 20 20 19 16 17 23 28 32 36 38 41 43 45 47 47 48 50 52 54 58 61 63 62
36 37 39 41 40 36 27 21 20 22 23 22 22 26 32 38 41 42 44 45 45 46 47 49 50 51 52 53 54 56 58 56
32 38 41 39 36 29 20 18 21 23 27 26 29 34 42 48 48 47 46 47 47 49 49 47 49 51 51 50 48 48 49 47
35 42 41 37 29 23 18 24 33 26 29 31 37 44 47 48 47 45 43 43 45 45 44 45 45 44 41 38 34 30 28 29
36 40 40 40 39 37 34 30 28 31 38 41 43 43 42 44 42 40 38 38 37 38 37 37 35 33 31 26 24 28 30 32
32 35 35 32 30 33 29 30 26 27 34 37 40 40 41 39 37 37 36 34 33 29 29 27 27 25 22 24 30 32 31 30
33 32 31 31 31 32 28 25 27 29 31 38 37 39 39 38 38 36 36 33 29 26 24 24 21 23 25 24 20 18 17 18
33 33 33 33 31 30 28 31 34 36 32 35 37 39 37 35 35 33 32 29 25 25 23 23 24 21 17 14 13 16 19 21
33 33 35 35 34 36 39 37 41 32 31 35 36 36 34 33 33 32 31 30 27 26 25 25 24 22 22 24 22 21 22 24
34 34 38 36 38 38 49 44 39 28 34 35 37 36 35 34 33 33 32 32 31 30 29 26 26 27 29 28 28 28 29 29
27 36 38 39 42 50 47 31 33 31 36 39 39 36 36 35 34 35 34 33 33 32 31 29 30 32 33 32 33 31 31 29
24 32 40 44 49 44 42 37 29 34 39 43 41 38 38 37 36 36 35 35 33 34 33 35 37 34 35 35 36 33 29 28
28 31 36 30 28 30 35 30 30 37 44 45 40 39 39 39 38 36 36 36 34 34 33 35 34 34 34 36 36 30 27 25
24 25 29 34 29 26 27 29 35 42 46 43 42 43 43 41 40 39 38 37 37 36 34 33 37 38 37 36 33 29 27 26
23 26 27 26 27 29 29 34 40 42 44 42 41 41 42 40 39 38 39 39 40 39 36 35 36 35 36 34 31 29 28 27
27 30 29 28 29 32 36 38 39 40 42 44 43 39 38 36 37 37 37 39 42 41 38 35 35 35 34 32 31 29 27 26
30 30 31 32 34 37 38 39 40 40 41 43 43 41 39 38 38 37 37 38 39 41 39 36 34 34 33 32 30 29 27 25
Wind_Direction
270 266 265 266 264 265 268 271 275 277 276 269 259 260 269 277 281 288 293 294 295 295 293 287 283 281 279 277 275 272 272 271
275 271 270 268 264 265 266 270 270 269 262 257 252 260 272 286 293 295 294 295 295 293 290 285 282 280 278 276 274 272 269 270
275 272 268 265 262 263 267 268 272 266 258 256 260 269 282 292 300 303 304 304 302 298 292 288 284 281 279 277 275 273 271 269
279 268 261 257 257 262 264 265 266 262 258 259 268 292 305 310 310 309 308 306 304 298 293 289 286 283 281 280 279 277 277 277
276 273 262 257 257 261 264 267 263 268 267 277 290 300 306 308 311 310 309 307 303 298 294 292 289 289 288 288 288 288 288 291
274 263 261 258 257 257 266 282 274 269 288 302 304 308 309 309 309 308 306 303 300 296 295 293 291 289 289 291 295 299 299 301
283 265 261 261 266 279 287 285 284 278 291 299 302 305 310 309 307 305 305 303 299 297 295 293 290 289 292 298 300 298 299 303
303 283 269 268 273 276 280 280 295 302 302 304 309 310 313 310 307 308 312 313 309 301 296 288 288 290 283 281 279 280 285 292
317 287 266 261 266 272 281 279 286 299 306 309 309 315 316 312 313 316 318 319 311 300 288 279 271 274 276 280 284 285 289 295
313 293 276 271 270 276 279 284 296 300 314 310 314 319 313 309 309 309 311 311 303 285 273 261 271 272 274 274 283 292 293 295
303 297 290 275 274 283 281 284 295 304 309 310 314 310 305 305 305 305 306 307 305 289 276 268 265 269 276 284 288 296 300 300
298 292 281 272 273 275 284 284 295 305 304 310 313 307 304 306 306 307 309 308 304 300 289 277 271 280 287 286 293 298 297 297
293 285 274 269 270 287 292 301 307 303 301 312 309 304 302 303 304 305 306 307 303 298 289 284 283 280 283 287 293 295 295 296
298 285 270 270 275 291 291 295 303 300 301 307 305 301 300 301 302 303 303 301 301 299 293 285 280 279 286 288 292 295 293 294
305 283 278 293 288 291 299 303 302 297 297 301 299 297 298 299 298 298 299 300 301 299 294 285 283 284 287 289 292 290 288 290
321 318 305 302 296 301 299 302 293 292 296 298 300 299 298 298 296 295 296 296 295 292 290 289 284 282 286 290 289 285 284 285
290 295 296 296 295 297 298 291 292 293 297 304 307 307 304 302 299 295 293 291 289 288 289 288 287 286 282 283 282 283 283 283
306 303 301 301 300 295 292 293 293 297 300 303 306 308 303 303 303 300 296 296 292 288 285 285 285 282 280 278 279 281 282 282
308 307 305 302 299 296 294 296 296 294 295 299 301 301 298 296 296 298 300 295 296 291 285 281 281 280 279 277 277 278 279 280